Tracking 30072 objects as of 14-Jan-2025
HD Live streaming from Space Station
objects crossing your sky now

STARLINK-2674

Track STARLINK-2674 now!
10-day predictions
STARLINK-2674 is classified as:


NORAD ID: 48354
Int'l Code: 2021-038B
Perigee: 553.3 km
Apogee: 555.4 km
Inclination: 53.1 °
Period: 95.6 minutes
Semi major axis: 6925 km
RCS: Unknown
Launch date: May 4, 2021
Source: United States (US)
Launch site: AIR FORCE EASTERN TEST RANGE (AFETR)
Your satellite tracking list
Your tracking list is empty




NASA's NSSDC Master Catalog

Two Line Element Set (TLE):
1 48354U 21038B   25013.88798587  .00016722  00000-0  11388-2 0  9990
2 48354  53.0544  86.1815 0001566  96.8738 263.2429 15.06400218203757
Source of the keplerian elements: AFSPC